FW6744 Weather Reports


time (UTC)temp
C
wind
direction
speed
KPH
gust
KPH
rain 1hr
cm
rain 24hr
cm
rain mn
cm
humidity
%
barometer
mb
20260905052929 22 164 0.0 1.6 0.00 0.53 0.00 97 1008.5
20260905052430 22 152 0.0 0.0 0.00 0.53 0.00 97 1008.6
20260905051930 22 150 0.0 0.0 0.00 0.53 0.00 97 1008.7
20260905051428 22 132 0.0 1.6 0.00 0.53 0.00 97 1008.8
20260905050929 22 172 0.0 1.6 0.00 0.53 0.00 97 1008.9
20260905050430 22 223 0.0 1.6 0.00 0.53 0.00 97 1009.0
20260905050206 22 223 0.0 1.6 0.00 0.53 0.00 97 1009.2
20260905045428 22 223 0.0 0.0 0.00 0.53 0.00 97 1009.2
20260905044930 22 223 0.0 0.0 0.00 0.53 0.00 97 1009.2
20260905044428 22 223 0.0 0.0 0.00 0.53 0.00 97 1009.4
20260905043929 22 223 0.0 0.0 0.00 0.53 0.00 97 1009.5
20260905043429 22 223 0.0 0.0 0.00 0.53 0.00 97 1009.5
20260905042929 22 223 0.0 1.6 0.00 0.53 0.00 97 1009.5
20260905042430 22 223 0.0 1.6 0.00 0.53 0.00 97 1009.5
20260905041930 22 26 0.0 1.6 0.00 0.53 0.00 97 1009.4
20260905041429 22 93 0.0 1.6 0.00 0.53 0.00 97 1009.4
20260905040922 22 149 0.0 1.6 0.00 0.53 0.00 97 1009.6
20260905040417 22 131 0.0 4.8 0.00 0.53 0.00 97 1009.5
20260905035912 22 227 0.0 4.8 0.00 0.53 0.53 97 1009.6
20260905035406 22 219 0.0 1.6 0.00 0.53 0.53 97 1009.6
20260905035127 22 63 0.0 1.6 0.00 0.53 0.53 97 1009.5
20260905034354 22 155 0.0 0.0 0.00 0.53 0.53 97 1009.6
20260905033848 22 155 0.0 0.0 0.00 0.53 0.53 97 1009.6
20260905033342 22 153 0.0 1.6 0.00 0.53 0.53 97 1009.6
20260905032837 22 153 0.0 1.6 0.00 0.53 0.53 97 1009.7
20260905032330 22 76 0.0 1.6 0.00 0.53 0.53 97 1009.7
20260905031824 22 103 0.0 0.0 0.00 0.53 0.53 97 1009.7
20260905031322 22 103 0.0 0.0 0.00 0.53 0.53 97 1009.6
20260905030812 22 120 0.0 0.0 0.00 0.53 0.53 97 1009.6
20260905030306 22 120 0.0 0.0 0.00 0.53 0.53 97 1009.6
20260905025800 22 120 0.0 0.0 0.00 0.53 0.53 97 1009.5
20260905025254 22 121 0.0 0.0 0.00 0.53 0.53 97 1009.6
20260905024747 22 120 0.0 0.0 0.00 0.53 0.53 97 1009.6
20260905024242 22 121 0.0 0.0 0.00 0.53 0.53 97 1009.6
20260905023736 22 121 0.0 0.0 0.00 0.53 0.53 97 1009.8
20260905023229 22 120 0.0 1.6 0.00 0.53 0.53 97 1009.6
20260905022724 22 121 0.0 1.6 0.00 0.53 0.53 97 1009.7
20260905022218 22 122 0.0 0.0 0.00 0.53 0.53 97 1009.8
20260905021712 22 139 0.0 1.6 0.00 0.53 0.53 97 1009.8
20260905021205 22 146 0.0 0.0 0.00 0.53 0.53 97 1009.6
20260905020700 23 149 0.0 0.0 0.00 0.53 0.53 97 1009.6
20260905020154 23 149 0.0 0.0 0.00 0.53 0.53 97 1009.6
20260905015647 23 149 0.0 0.0 0.00 0.53 0.53 97 1009.7
20260905015142 23 149 0.0 0.0 0.00 0.53 0.53 97 1009.5
20260905014856 23 149 0.0 0.0 0.00 0.53 0.53 97 1009.5
20260905014130 23 149 0.0 0.0 0.00 0.53 0.53 97 1009.5
20260905013624 22 149 0.0 0.0 0.00 0.53 0.53 97 1009.5
20260905013118 22 149 0.0 0.0 0.00 0.53 0.53 97 1009.4
20260905012612 23 149 0.0 0.0 0.00 0.53 0.53 97 1009.3
20260905012112 22 149 0.0 0.0 0.00 0.53 0.53 97 1009.1
20260905011613 23 149 0.0 0.0 0.00 0.53 0.53 97 1009.1
20260905011337 23 149 0.0 0.0 0.00 0.53 0.53 97 1008.9
20260905010841 23 149 0.0 0.0 0.00 0.53 0.53 97 1008.7
20260905010113 23 149 0.0 0.0 0.00 0.53 0.53 97 1008.6
20260905005839 23 149 0.0 0.0 0.00 0.53 0.53 97 1008.7
20260905005114 23 149 0.0 3.2 0.00 0.53 0.53 97 1008.6
20260905004612 23 34 0.0 3.2 0.00 0.53 0.53 97 1008.6
20260905004114 23 63 0.0 1.6 0.00 0.53 0.53 96 1008.4
20260905003612 23 66 0.0 0.0 0.00 0.53 0.53 96 1008.2
20260905003114 23 66 0.0 0.0 0.00 0.53 0.53 96 1008.7
20260905002613 23 66 0.0 0.0 0.03 0.53 0.53 96 1008.8
20260905002114 23 66 0.0 0.0 0.03 0.53 0.53 96 1008.6
20260905001613 23 66 0.0 0.0 0.03 0.53 0.53 96 1008.2
20260905001113 23 66 0.0 0.0 0.03 0.53 0.53 96 1008.2
20260905000615 23 66 0.0 0.0 0.03 0.53 0.53 96 1008.0
20260905000116 23 66 0.0 1.6 0.03 0.53 0.53 96 1008.1
20260904235616 23 66 0.0 1.6 0.03 0.53 0.53 96 1008.2
20260904235115 23 66 0.0 1.6 0.03 0.53 0.53 96 1008.2
20260904234612 23 73 0.0 1.6 0.03 0.53 0.53 95 1007.8
20260904234112 23 73 0.0 3.2 0.03 0.53 0.53 95 1008.2
20260904233610 23 37 0.0 3.2 0.03 0.53 0.53 95 1008.0
20260904233111 23 253 0.0 4.8 0.03 0.53 0.53 95 1008.4
20260904232608 23 219 0.0 4.8 0.00 0.51 0.53 95 1008.8
20260904232108 23 218 0.0 4.8 0.05 0.51 0.51 95 1009.2
20260904231609 23 220 0.0 1.6 0.05 0.51 0.51 96 1009.1
20260904231553 23 220 0.0 1.6 0.08 0.51 0.51 96 1009.2
20260904230609 23 220 0.0 1.6 0.10 0.51 0.51 95 1009.3
20260904230107 23 221 0.0 0.0 0.41 0.51 0.51 95 1009.3
20260904225605 23 221 0.0 0.0 0.51 0.51 0.51 95 1009.2
20260904225330 23 221 0.0 0.0 0.51 0.51 0.51 95 1009.2
20260904224603 23 221 0.0 3.2 0.51 0.51 0.51 95 1009.3
20260904224327 23 221 0.0 3.2 0.51 0.51 0.51 94 1009.8
20260904223601 23 205 0.0 1.6 0.51 0.51 0.51 95 1010.0
20260904223100 23 51 0.0 1.6 0.51 0.51 0.51 95 1009.8
20260904222559 23 31 0.0 1.6 0.51 0.51 0.51 94 1009.4
20260904222058 23 30 1.6 4.8 0.46 0.46 0.48 94 1009.5
20260904221554 23 30 1.6 4.8 0.46 0.46 0.46 93 1009.9
20260904221056 23 32 0.0 3.2 0.43 0.43 0.43 92 1010.0
20260904220556 23 85 0.0 1.6 0.33 0.33 0.41 92 1009.8
20260904220054 23 118 0.0 1.6 0.10 0.10 0.13 92 1010.1
20260904215555 23 226 0.0 1.6 0.00 0.00 0.00 91 1009.7
20260904215053 23 83 0.0 4.8 0.00 0.00 0.00 89 1009.2
20260904214551 23 73 1.6 6.4 0.00 0.00 0.00 87 1009.3
20260904214314 24 30 3.2 9.7 0.00 0.00 0.00 84 1009.3
20260904213551 26 32 3.2 16.1 0.00 0.00 0.00 79 1009.9
20260904213051 28 167 4.8 24.1 0.00 0.00 0.00 74 1009.9
20260904212550 30 20 6.4 24.1 0.00 0.00 0.00 71 1009.0
20260904212323 32 108 3.2 24.1 0.00 0.00 0.00 66 1008.9
20260904211554 33 9 0.0 14.5 0.00 0.00 0.00 62 1008.1
20260904211047 33 65 0.0 0.0 0.00 0.00 0.00 63 1007.7
20260904210542 34 65 0.0 0.0 0.00 0.00 0.00 61 1007.6
20260904210036 34 65 0.0 0.0 0.00 0.00 0.00 60 1007.5
20260904205530 35 65 0.0 0.0 0.00 0.00 0.00 60 1007.6
20260904205258 35 65 0.0 0.0 0.00 0.00 0.00 59 1007.5
20260904204518 36 65 0.0 0.0 0.00 0.00 0.00 58 1007.5
20260904204234 36 65 0.0 1.6 0.00 0.00 0.00 57 1007.5
20260904203506 36 65 0.0 1.6 0.00 0.00 0.00 56 1007.5
20260904203001 37 68 0.0 1.6 0.00 0.00 0.00 55 1007.4
20260904202454 36 158 0.0 0.0 0.00 0.00 0.00 56 1007.4
20260904202221 35 157 0.0 0.0 0.00 0.00 0.00 57 1007.3
20260904201441 35 158 0.0 0.0 0.00 0.00 0.00 58 1007.2
20260904200936 35 158 0.0 0.0 0.00 0.00 0.00 58 1007.3
20260904200430 35 158 0.0 0.0 0.00 0.00 0.00 59 1007.4
20260904195923 35 158 0.0 0.0 0.00 0.00 0.00 59 1007.7
20260904195416 35 160 0.0 0.0 0.00 0.00 0.00 57 1007.8
20260904194910 36 160 0.0 1.6 0.00 0.00 0.00 55 1008.0
20260904194403 36 160 0.0 1.6 0.00 0.00 0.00 52 1008.0
20260904194119 37 28 0.0 3.2 0.00 0.00 0.00 51 1008.1
20260904193352 37 27 1.6 3.2 0.00 0.00 0.00 50 1008.0
20260904192846 38 157 1.6 3.2 0.00 0.00 0.00 49 1008.1
20260904192340 38 34 1.6 3.2 0.00 0.00 0.00 50 1008.3
20260904191834 38 36 0.0 3.2 0.00 0.00 0.00 50 1008.2
20260904191550 39 22 0.0 3.2 0.00 0.00 0.00 50 1008.3
20260904190822 38 258 0.0 3.2 0.00 0.00 0.00 48 1008.4
20260904190316 38 203 0.0 6.4 0.00 0.00 0.00 51 1008.4
20260904190031 38 164 0.0 6.4 0.00 0.00 0.00 49 1008.5
20260904185306 38 152 0.0 3.2 0.00 0.00 0.00 50 1008.7
20260904184757 38 147 0.0 4.8 0.00 0.00 0.00 50 1008.8
20260904184252 37 156 1.6 6.4 0.00 0.00 0.00 51 1009.0
20260904183745 37 205 1.6 6.4 0.00 0.00 0.00 50 1009.0
20260904183239 37 172 1.6 9.7 0.00 0.00 0.00 51 1009.1
20260904182734 37 202 1.6 9.7 0.00 0.00 0.00 51 1009.2
20260904182227 37 81 0.0 3.2 0.00 0.00 0.00 51 1009.2
20260904181721 36 39 0.0 3.2 0.00 0.00 0.00 54 1009.3
20260904181215 36 39 1.6 6.4 0.00 0.00 0.00 54 1009.4
20260904180709 36 38 1.6 6.4 0.00 0.00 0.00 52 1009.5
20260904180201 37 32 1.6 4.8 0.00 0.00 0.00 52 1009.6
20260904175920 37 210 0.0 4.8 0.00 0.00 0.00 50 1009.6
20260904175149 37 222 0.0 3.2 0.00 0.00 0.00 52 1009.7
20260904174648 37 274 1.6 3.2 0.00 0.00 0.00 53 1009.7
20260904174147 37 51 0.0 0.0 0.00 0.00 0.00 53 1009.8
20260904173842 36 267 0.0 1.6 0.00 0.00 0.00 54 1009.8
20260904173339 36 51 0.0 3.2 0.00 0.00 0.00 54 1009.8
20260904172835 36 198 0.0 3.2 0.00 0.00 0.00 54 1010.0
20260904172336 35 148 1.6 4.8 0.00 0.00 0.00 56 1009.9
20260904172104 36 37 1.6 4.8 0.00 0.00 0.00 55 1009.9
20260904171335 36 22 0.0 3.2 0.00 0.00 0.00 55 1009.8
20260904171101 36 206 1.6 6.4 0.00 0.00 0.00 57 1009.8
20260904170603 35 183 1.6 6.4 0.00 0.00 0.00 57 1009.8
20260904165830 35 200 0.0 4.8 0.00 0.00 0.00 57 1009.9
20260904165326 35 136 0.0 4.8 0.00 0.00 0.00 58 1009.8
20260904164818 35 201 0.0 4.8 0.00 0.00 0.00 59 1009.9
20260904164313 34 180 0.0 3.2 0.00 0.00 0.00 59 1010.0
20260904163807 34 214 1.6 6.4 0.00 0.00 0.00 61 1010.0
20260904163301 34 32 0.0 6.4 0.00 0.00 0.00 63 1010.0
20260904163235 33 149 1.6 6.4 0.00 0.00 0.00 62 1010.2
20260904162740 33 211 1.6 6.4 0.00 0.00 0.00 64 1010.2
20260904161751 33 27 1.6 6.4 0.00 0.00 0.00 63 1010.2
20260904161251 33 40 1.6 6.4 0.00 0.00 0.00 63 1010.2
20260904160747 32 48 0.0 6.4 0.00 0.00 0.00 63 1010.3
20260904160248 33 145 1.6 4.8 0.00 0.00 0.00 63 1010.2
20260904155746 32 31 1.6 6.4 0.00 0.00 0.00 64 1010.4
20260904155247 32 45 1.6 6.4 0.00 0.00 0.00 63 1010.5
20260904154746 32 151 0.0 4.8 0.00 0.00 0.00 65 1010.6
20260904154246 32 46 1.6 6.4 0.00 0.00 0.00 66 1010.6
20260904153744 32 229 1.6 6.4 0.00 0.00 0.00 64 1010.5
20260904153243 32 36 1.6 6.4 0.00 0.00 0.00 66 1010.5
20260904152743 32 125 1.6 6.4 0.00 0.00 0.00 67 1010.4
20260904152248 32 27 1.6 6.4 0.00 0.00 0.00 67 1010.4
20260904151745 32 215 0.0 4.8 0.00 0.00 0.00 67 1010.4
20260904151241 32 39 1.6 6.4 0.00 0.00 0.00 69 1010.5
20260904150739 31 39 1.6 6.4 0.00 0.00 0.00 68 1010.4
20260904150241 31 163 0.0 3.2 0.00 0.00 0.00 70 1010.4
20260904145741 31 173 0.0 3.2 0.00 0.00 0.00 70 1010.4
20260904145239 31 70 0.0 3.2 0.00 0.00 0.00 70 1010.4
20260904144739 31 131 1.6 4.8 0.00 0.00 0.00 72 1010.4
20260904144503 31 39 1.6 6.4 0.00 0.00 0.00 72 1010.3
20260904143740 30 184 1.6 6.4 0.00 0.00 0.00 72 1010.3
20260904143241 30 215 0.0 4.8 0.00 0.00 0.00 73 1010.3
20260904142739 30 33 0.0 4.8 0.00 0.00 0.00 73 1010.3
20260904142241 30 140 0.0 4.8 0.00 0.00 0.00 73 1010.3
20260904141741 30 67 0.0 4.8 0.00 0.00 0.00 74 1010.3
20260904141240 30 23 0.0 4.8 0.00 0.00 0.00 76 1010.2
20260904140739 30 88 0.0 4.8 0.00 0.00 0.00 77 1010.2
20260904140503 29 32 0.0 6.4 0.00 0.00 0.00 77 1010.3
20260904135740 29 27 0.0 6.4 0.00 0.00 0.00 77 1010.3
20260904135239 29 197 0.0 4.8 0.00 0.00 0.00 77 1010.2
20260904134737 28 161 0.0 3.2 0.00 0.00 0.00 78 1010.1
20260904134242 28 212 0.0 4.8 0.00 0.00 0.00 78 1010.1
20260904133946 28 99 0.0 4.8 0.00 0.00 0.00 79 1010.1
20260904133220 28 223 0.0 3.2 0.00 0.00 0.00 80 1010.0
20260904132714 28 218 1.6 6.4 0.00 0.00 0.00 80 1009.8
20260904132208 28 210 0.0 6.4 0.00 0.00 0.00 80 1010.0
20260904131702 27 146 0.0 3.2 0.00 0.00 0.00 81 1010.0
20260904131156 27 70 0.0 1.6 0.00 0.00 0.00 82 1010.1
20260904130650 27 193 0.0 1.6 0.00 0.00 0.00 82 1010.0
20260904130623 27 64 0.0 1.6 0.00 0.00 0.00 82 1010.1
20260904125638 27 138 0.0 1.6 0.00 0.00 0.00 82 1010.1
20260904125131 27 217 0.0 3.2 0.00 0.00 0.00 83 1010.2
20260904124849 27 217 0.0 6.4 0.00 0.00 0.00 83 1010.2
20260904124349 27 206 0.0 8.0 0.00 0.00 0.00 83 1010.3
20260904123614 26 25 0.0 8.0 0.00 0.00 0.00 84 1010.2
20260904123108 26 200 0.0 3.2 0.00 0.00 0.00 84 1010.1
20260904122832 26 52 0.0 6.4 0.00 0.00 0.00 85 1010.1
20260904122055 26 60 0.0 6.4 0.00 0.00 0.00 85 1010.1
20260904121549 26 11 1.6 4.8 0.00 0.00 0.00 86 1010.2
20260904121044 25 89 1.6 8.0 0.00 0.00 0.00 88 1010.3
20260904121028 25 273 0.0 8.0 0.00 0.00 0.00 90 1010.2
20260904120032 24 208 0.0 4.8 0.00 0.00 0.00 92 1010.2
20260904115526 24 190 0.0 1.6 0.00 0.00 0.00 93 1010.1
20260904115020 23 155 0.0 1.6 0.00 0.00 0.00 94 1009.9
20260904114742 23 43 0.0 0.0 0.00 0.00 0.00 94 1009.9
20260904114225 23 43 0.0 0.0 0.00 0.00 0.00 93 1010.0
20260904113502 23 44 0.0 0.0 0.00 0.00 0.00 93 1010.1
20260904112956 23 44 0.0 0.0 0.00 0.00 0.00 93 1010.0
20260904112450 23 43 0.0 0.0 0.00 0.00 0.00 93 1010.1
20260904111944 23 43 0.0 0.0 0.00 0.00 0.00 92 1010.1
20260904111437 23 43 0.0 0.0 0.00 0.00 0.00 92 1010.1
20260904110932 23 43 0.0 0.0 0.00 0.00 0.00 92 1010.1
20260904110425 23 43 0.0 0.0 0.00 0.00 0.00 92 1010.0
20260904105919 23 43 0.0 0.0 0.00 0.00 0.00 92 1010.0
20260904105412 23 44 0.0 0.0 0.00 0.00 0.00 91 1010.0
20260904104906 23 43 0.0 0.0 0.00 0.00 0.00 91 1010.0
20260904104400 23 43 0.0 0.0 0.00 0.00 0.00 91 1010.0
20260904103854 23 43 0.0 0.0 0.00 0.00 0.00 91 1010.0
20260904103348 23 44 0.0 0.0 0.00 0.00 0.00 91 1009.9
20260904102842 23 43 0.0 0.0 0.00 0.00 0.00 91 1009.9
20260904102335 23 43 0.0 0.0 0.00 0.00 0.00 90 1009.9
20260904101830 23 43 0.0 0.0 0.00 0.00 0.00 90 1010.0
20260904101549 23 44 0.0 0.0 0.00 0.00 0.00 90 1009.9
20260904100818 23 43 0.0 0.0 0.00 0.00 0.00 90 1009.9
20260904100312 23 43 0.0 0.0 0.00 0.00 0.00 90 1010.0
20260904095806 23 43 0.0 0.0 0.00 0.00 0.00 89 1010.0
20260904095259 23 43 0.0 0.0 0.00 0.00 0.00 89 1010.0
20260904094754 23 43 0.0 0.0 0.00 0.00 0.00 89 1010.0
20260904094248 24 43 0.0 0.0 0.00 0.00 0.00 89 1010.0
20260904093742 24 43 0.0 0.0 0.00 0.00 0.00 89 1010.0
20260904093236 24 43 0.0 0.0 0.00 0.00 0.00 88 1010.0
20260904092730 24 43 0.0 0.0 0.00 0.00 0.00 88 1010.1
20260904092224 24 43 0.0 0.0 0.00 0.00 0.00 88 1010.1
20260904091941 24 43 0.0 0.0 0.00 0.00 0.00 87 1010.2
20260904091211 24 43 0.0 0.0 0.00 0.00 0.00 87 1010.2
20260904090705 24 43 0.0 0.0 0.00 0.00 0.00 87 1010.3
20260904090426 24 43 0.0 0.0 0.00 0.00 0.00 87 1010.2
20260904085653 25 43 0.0 0.0 0.00 0.00 0.00 86 1010.3
20260904085148 25 43 0.0 0.0 0.00 0.00 0.00 86 1010.3
20260904084642 25 43 0.0 0.0 0.00 0.00 0.00 86 1010.3
20260904084356 25 43 0.0 0.0 0.00 0.00 0.00 85 1010.3
20260904083630 25 43 0.0 0.0 0.00 0.00 0.00 85 1010.2
20260904083123 25 43 0.0 0.0 0.00 0.00 0.00 85 1010.1
20260904082618 25 43 0.0 0.0 0.00 0.00 0.00 85 1010.1
20260904082112 25 43 0.0 0.0 0.00 0.00 0.00 85 1010.1
20260904081605 25 43 0.0 0.0 0.00 0.00 0.00 85 1010.1
20260904081059 25 43 0.0 0.0 0.00 0.00 0.00 84 1010.0
20260904080603 25 43 0.0 0.0 0.00 0.00 0.00 84 1009.9
20260904080048 25 43 0.0 0.0 0.00 0.00 0.00 83 1010.0
20260904075542 25 43 0.0 0.0 0.00 0.00 0.00 82 1010.0
20260904075036 25 43 0.0 0.0 0.00 0.00 0.00 82 1009.9
20260904074530 25 43 0.0 0.0 0.00 0.00 0.00 82 1010.0
20260904074024 26 43 0.0 0.0 0.00 0.00 0.00 82 1009.9
20260904073518 26 43 0.0 1.6 0.00 0.00 0.00 82 1009.8
20260904073012 26 43 0.0 1.6 0.00 0.00 0.00 82 1009.8
20260904072506 26 44 0.0 0.0 0.00 0.00 0.00 81 1009.6
20260904072000 26 43 0.0 0.0 0.00 0.00 0.00 81 1009.5
20260904071714 26 43 0.0 1.6 0.00 0.00 0.00 81 1009.7
20260904071432 26 43 0.0 1.6 0.00 0.00 0.00 81 1009.6
20260904070442 26 43 0.0 0.0 0.00 0.00 0.00 80 1009.6
20260904070203 26 43 0.0 0.0 0.00 0.00 0.00 80 1009.5
20260904065430 26 43 0.0 0.0 0.00 0.00 0.00 79 1009.7
20260904064924 26 43 0.0 0.0 0.00 0.00 0.00 80 1009.8
20260904064418 27 43 0.0 0.0 0.00 0.00 0.00 79 1009.8
20260904063912 27 43 0.0 1.6 0.00 0.00 0.00 79 1009.8
20260904063414 27 43 0.0 1.6 0.00 0.00 0.00 78 1009.8
20260904063138 27 43 0.0 1.6 0.00 0.00 0.00 78 1010.0
20260904062411 27 43 0.0 1.6 0.00 0.00 0.00 78 1010.0
20260904062132 27 43 0.0 6.4 0.00 0.00 0.00 79 1010.2
20260904061409 28 43 0.0 6.4 0.00 0.00 0.00 79 1010.5
20260904060910 28 30 0.0 3.2 0.00 0.00 0.00 80 1010.6
20260904060410 28 34 1.6 3.2 0.00 0.00 0.00 79 1010.7
20260904055908 28 35 1.6 4.8 0.00 0.00 0.00 79 1010.8
20260904055409 28 33 3.2 9.7 0.00 0.00 0.00 79 1010.9
20260904054908 28 174 1.6 9.7 0.00 0.00 0.00 78 1010.9
20260904054408 29 29 1.6 8.0 0.00 0.00 0.00 76 1010.5
20260904054126 29 115 0.0 8.0 0.00 0.00 0.00 76 1009.8
20260904053406 29 166 1.6 9.7 0.00 0.00 0.00 76 1009.7